Stündliche Wetter Czyncze

Heute, 28 Oktober, Mittwoch

Zeit Temperatur Niederschläge Wind Luftdruck Luftfeuchtigkeit
00:00 +11°C° 0.4 mm 3 m/S 748 mmHg 92%
01:00 +11°C° 0.4 mm 3 m/S 749 mmHg 92%
02:00 +10°C° 0 mm 3 m/S 749 mmHg 92%
03:00 +10°C° 0.3 mm 2 m/S 749 mmHg 92%
04:00 +9°C° 0.3 mm 2 m/S 749 mmHg 92%
05:00 +10°C° 0.3 mm 1 m/S 749 mmHg 93%
06:00 +9°C° 0 mm 2 m/S 749 mmHg 93%
07:00 +9°C° 0 mm 2 m/S 750 mmHg 94%
08:00 +8°C° 0 mm 2 m/S 750 mmHg 95%
09:00 +9°C° 0 mm 2 m/S 750 mmHg 89%
10:00 +11°C° 0 mm 3 m/S 750 mmHg 83%
11:00 +12°C° 0 mm 3 m/S 750 mmHg 76%
12:00 +12°C° 0 mm 4 m/S 750 mmHg 74%
13:00 +13°C° 0 mm 4 m/S 749 mmHg 72%
14:00 +14°C° 0 mm 4 m/S 749 mmHg 70%
15:00 +13°C° 0 mm 4 m/S 749 mmHg 75%
16:00 +12°C° 0 mm 3 m/S 749 mmHg 79%
17:00 +12°C° 0 mm 3 m/S 749 mmHg 83%
18:00 +12°C° 0 mm 3 m/S 749 mmHg 84%
19:00 +12°C° 0 mm 3 m/S 749 mmHg 86%
20:00 +12°C° 0 mm 3 m/S 749 mmHg 87%
21:00 +11°C° 0.1 mm 3 m/S 749 mmHg 89%
22:00 +11°C° 0.1 mm 3 m/S 749 mmHg 90%
23:00 +11°C° 0.1 mm 3 m/S 749 mmHg 92%

Morgen, 29 Oktober, Donnerstag

Zeit Temperatur Niederschläge Wind Luftdruck Luftfeuchtigkeit
00:00 +10°C° 0 mm 2 m/S 749 mmHg 91%
01:00 +10°C° 0 mm 2 m/S 749 mmHg 90%
02:00 +9°C° 0 mm 2 m/S 749 mmHg 89%
03:00 +9°C° 0.2 mm 2 m/S 748 mmHg 89%
04:00 +9°C° 0.2 mm 2 m/S 748 mmHg 89%
05:00 +9°C° 0.2 mm 2 m/S 748 mmHg 89%
06:00 +9°C° 0 mm 2 m/S 748 mmHg 90%
07:00 +9°C° 0 mm 2 m/S 748 mmHg 91%
08:00 +8°C° 0 mm 3 m/S 748 mmHg 92%
09:00 +9°C° 0 mm 3 m/S 748 mmHg 88%
10:00 +10°C° 0 mm 3 m/S 748 mmHg 84%
11:00 +11°C° 0 mm 4 m/S 748 mmHg 80%
12:00 +12°C° 0 mm 4 m/S 748 mmHg 77%
13:00 +12°C° 0 mm 4 m/S 747 mmHg 75%
14:00 +13°C° 0 mm 4 m/S 747 mmHg 72%
15:00 +12°C° 0 mm 3 m/S 747 mmHg 75%
16:00 +11°C° 0 mm 3 m/S 747 mmHg 78%
17:00 +10°C° 0 mm 2 m/S 747 mmHg 81%
18:00 +10°C° 0 mm 2 m/S 747 mmHg 82%
19:00 +10°C° 0 mm 2 m/S 747 mmHg 83%
20:00 +9°C° 0 mm 2 m/S 747 mmHg 84%
21:00 +9°C° 0.4 mm 2 m/S 748 mmHg 87%
22:00 +9°C° 0.4 mm 3 m/S 748 mmHg 90%
23:00 +9°C° 0.4 mm 3 m/S 748 mmHg 92%

übermorgen, 30 Oktober, Freitag

Zeit Temperatur Niederschläge Wind Luftdruck Luftfeuchtigkeit
00:00 +9°C° 0.6 mm 3 m/S 748 mmHg 91%
01:00 +8°C° 0.6 mm 4 m/S 748 mmHg 90%
02:00 +8°C° 0.6 mm 4 m/S 748 mmHg 89%
03:00 +7°C° 0 mm 4 m/S 748 mmHg 90%
04:00 +6°C° 0 mm 4 m/S 748 mmHg 92%
05:00 +7°C° 0 mm 3 m/S 749 mmHg 94%
06:00 +6°C° 0.1 mm 4 m/S 749 mmHg 91%
07:00 +7°C° 0.1 mm 4 m/S 749 mmHg 89%
08:00 +7°C° 0.1 mm 5 m/S 749 mmHg 87%
09:00 +8°C° 0 mm 5 m/S 750 mmHg 85%
10:00 +8°C° 0 mm 5 m/S 750 mmHg 82%
11:00 +9°C° 0 mm 5 m/S 750 mmHg 79%
12:00 +8°C° 0 mm 5 m/S 750 mmHg 79%
13:00 +8°C° 0 mm 5 m/S 750 mmHg 78%
14:00 +8°C° 0 mm 5 m/S 750 mmHg 78%
15:00 +8°C° 0 mm 4 m/S 750 mmHg 79%
16:00 +8°C° 0 mm 4 m/S 750 mmHg 80%
17:00 +9°C° 0 mm 3 m/S 750 mmHg 81%
18:00 +8°C° 0 mm 3 m/S 750 mmHg 83%
19:00 +8°C° 0 mm 2 m/S 751 mmHg 84%
20:00 +8°C° 0 mm 2 m/S 751 mmHg 86%
21:00 +8°C° 0 mm 2 m/S 751 mmHg 87%
22:00 +7°C° 0 mm 2 m/S 751 mmHg 89%
23:00 +7°C° 0 mm 2 m/S 751 mmHg 90%

31 Oktober, Samstag

Zeit Temperatur Niederschläge Wind Luftdruck Luftfeuchtigkeit
00:00 +7°C° 0 mm 2 m/S 751 mmHg 90%
01:00 +6°C° 0 mm 2 m/S 751 mmHg 90%
02:00 +6°C° 0 mm 2 m/S 752 mmHg 90%
03:00 +6°C° 0 mm 2 m/S 752 mmHg 92%
04:00 +6°C° 0 mm 2 m/S 752 mmHg 93%
05:00 +4°C° 0 mm 3 m/S 753 mmHg 94%
06:00 +4°C° 0 mm 3 m/S 753 mmHg 95%
07:00 +4°C° 0 mm 3 m/S 754 mmHg 96%
08:00 +4°C° 0 mm 3 m/S 754 mmHg 97%
09:00 +5°C° 0 mm 3 m/S 754 mmHg 94%
10:00 +7°C° 0 mm 3 m/S 755 mmHg 90%
11:00 +7°C° 0 mm 4 m/S 755 mmHg 87%
12:00 +9°C° 0 mm 3 m/S 756 mmHg 85%
13:00 +9°C° 0 mm 3 m/S 756 mmHg 83%
14:00 +9°C° 0 mm 3 m/S 756 mmHg 81%
15:00 +9°C° 0 mm 3 m/S 756 mmHg 84%
16:00 +8°C° 0 mm 2 m/S 756 mmHg 87%
17:00 +8°C° 0 mm 2 m/S 757 mmHg 90%
18:00 +7°C° 0 mm 2 m/S 757 mmHg 90%
19:00 +7°C° 0 mm 2 m/S 757 mmHg 90%
20:00 +8°C° 0 mm 1 m/S 758 mmHg 90%
21:00 +8°C° 0 mm 1 m/S 758 mmHg 91%
22:00 +8°C° 0 mm 1 m/S 758 mmHg 92%
23:00 +7°C° 0 mm 1 m/S 758 mmHg 93%

1 November, Sonntag

Zeit Temperatur Niederschläge Wind Luftdruck Luftfeuchtigkeit
00:00 +7°C° 0 mm 1 m/S 758 mmHg 93%
01:00 +7°C° 0 mm 1 m/S 758 mmHg 93%
02:00 +6°C° 0 mm 1 m/S 758 mmHg 93%
03:00 +6°C° 0 mm 1 m/S 758 mmHg 93%
04:00 +6°C° 0 mm 1 m/S 758 mmHg 93%
05:00 +6°C° 0 mm 1 m/S 759 mmHg 92%
06:00 +6°C° 0 mm 1 m/S 759 mmHg 93%
07:00 +5°C° 0 mm 1 m/S 759 mmHg 93%
08:00 +5°C° 0 mm 1 m/S 759 mmHg 93%
09:00 +7°C° 0 mm 1 m/S 759 mmHg 88%
10:00 +7°C° 0 mm 2 m/S 759 mmHg 84%
11:00 +8°C° 0 mm 2 m/S 759 mmHg 79%
12:00 +9°C° 0 mm 2 m/S 758 mmHg 76%
13:00 +10°C° 0 mm 2 m/S 758 mmHg 73%
14:00 +10°C° 0 mm 3 m/S 758 mmHg 70%
15:00 +9°C° 0 mm 2 m/S 758 mmHg 74%
16:00 +8°C° 0 mm 2 m/S 757 mmHg 79%
17:00 +7°C° 0 mm 2 m/S 757 mmHg 83%
18:00 +7°C° 0 mm 2 m/S 757 mmHg 84%
19:00 +7°C° 0 mm 3 m/S 757 mmHg 86%
20:00 +5°C° 0 mm 3 m/S 757 mmHg 87%
21:00 +5°C° 0 mm 3 m/S 757 mmHg 88%
22:00 +5°C° 0 mm 3 m/S 756 mmHg 89%
23:00 +4°C° 0 mm 3 m/S 756 mmHg 90%

2 November, Montag

Zeit Temperatur Niederschläge Wind Luftdruck Luftfeuchtigkeit
00:00 +4°C° 0 mm 3 m/S 756 mmHg 91%
01:00 +4°C° 0 mm 3 m/S 756 mmHg 91%
02:00 +4°C° 0 mm 4 m/S 756 mmHg 91%
03:00 +4°C° 0 mm 3 m/S 756 mmHg 92%
04:00 +4°C° 0 mm 3 m/S 756 mmHg 92%
05:00 +3°C° 0 mm 3 m/S 756 mmHg 93%
06:00 +3°C° 0 mm 3 m/S 756 mmHg 93%
07:00 +3°C° 0 mm 4 m/S 756 mmHg 93%
08:00 +3°C° 0 mm 4 m/S 756 mmHg 93%
09:00 +5°C° 0 mm 4 m/S 756 mmHg 88%
10:00 +6°C° 0 mm 5 m/S 756 mmHg 83%
11:00 +7°C° 0 mm 5 m/S 756 mmHg 78%
12:00 +8°C° 0 mm 5 m/S 756 mmHg 76%
13:00 +9°C° 0 mm 5 m/S 756 mmHg 73%
14:00 +10°C° 0 mm 5 m/S 756 mmHg 71%
15:00 +10°C° 0 mm 4 m/S 756 mmHg 74%
16:00 +8°C° 0 mm 4 m/S 755 mmHg 78%
17:00 +8°C° 0 mm 3 m/S 755 mmHg 82%
18:00 +7°C° 0 mm 3 m/S 755 mmHg 83%
19:00 +6°C° 0 mm 4 m/S 756 mmHg 84%
20:00 +5°C° 0 mm 4 m/S 756 mmHg 86%
21:00 +5°C° 0 mm 3 m/S 756 mmHg 87%
22:00 +5°C° 0 mm 3 m/S 756 mmHg 89%
23:00 +4°C° 0 mm 3 m/S 756 mmHg 90%
Mehr zeigen

Wir brauchen deine Erlaubnis

Meteoprog und unser Service Anbieter werden persönliche Daten aufbewahren, so wie Cookies, Geräte Bezeichnung oder ähnliche Technologien von deinem Gerät und Prozess, so wie Persönliche Daten Inhalte und Werbungen, genauso wie social Media und den Verkehr zu analysieren.

  • Aufbewahrung und/oder Zugang zu deiner Geräte Informationen.

    Cookies, Geräte Bezeichnung oder andere Informationen, können aufbewahrt oder Zugang zu deinem Gerät erhalten, für den Grund, der oben angegeben wird.

  • Personalisierte Werbung und Inhalte, Messungen, Einblick in das Publikum und Produkt Entwicklung.

    Werbungen und Inhalte können personalisiert werden, basierend auf ein Profil. Mehr Daten können besser personalisierte Werbungen und Inhalte hinzufügen. Werbung und Inhalte können gezeigt und gemessen werden. Einblicke über das Publikum, welche die Werbung gesehen haben und den Inhalt, können abgeleitet werden. So wie Daten können genutzt werden, um es zu verbessern oder die Benutzer Erfahrung zu verbessern das System und die Software.

Wenn du “Ich stimme zu” klickst, erlaubst du uns, die Cookies zu benutzen die Geräte Bezeichnung, den Web oder ähnliche Technologien zu benutzen. Deine Settings, können in deinem Gerät bei deinem Browser geändert werden.

Für den bestimmten Zweck, berechtigten Interessen beruhen darauf, mehr als auf den Inhalt. Du kannst mehr darüber in unseren Privaten und Cookie Politik lesen.